Monroe, MI

7:43 AM EDT on April 25, 2018 (GMT -0400)
Custer

Weather History for KTTF - March, 2014

Change the Weather History Date:

Thursday, March 13, 2014

  Actual Average Record
Temperature  
Mean Temperature 12 °F -  
Max Temperature 23 °F 43 °F 77 °F (1990)
Min Temperature 0 °F 27 °F 0 °F (2014)
Degree Days  
Heating Degree Days 54    
Moisture  
Dew Point 1 °F    
Average Humidity 64    
Maximum Humidity 85    
Minimum Humidity 36    
Precipitation  
Precipitation 0.00 in - - ()
Sea Level Pressure  
Sea Level Pressure 30.06 in    
Wind  
Wind Speed 3 mph (SW)    
Max Wind Speed 12 mph    
Max Gust Speed -    
Visibility 10 miles    
Events      
Averages and records for this station are not official NWS values.
T = Trace of Precipitation, MM = Missing Value Source: NWS Daily Summary

Daily Weather History Graph

Daily Weather History Graph

Search for Another Location

Airport or City:

Astronomy

Mar. 13, 2014 Rise Set
Actual Time 7:48 AM EDT 7:38 PM EDT
Civil Twilight 7:21 AM EDT 8:05 PM EDT
Nautical Twilight 6:48 AM EDT 8:38 PM EDT
Astronomical Twilight 6:16 AM EDT 9:11 PM EDT
Moon 5:01 PM EDT (3/13) 5:57 AM EDT (3/13)
Length of Visible Light 12h 44m
Length of Day
11h 49m
Waxing Gibbous, 91% of the Moon is Illuminated
Mar 13
Waxing Gibbous
Mar 16
Full
Mar 23
Last Quarter
Mar 30
New
Apr 7
First Quarter

Hourly Weather History & Observations

Time (EDT) Temp. Windchill Dew Point Humidity Pressure Visibility Wind Dir Wind Speed Gust Speed Precip Events Conditions
12:13 AM 6.8 °F - -0.4 °F 72% 29.99 in 10.0 mi Calm Calm - N/A   Clear
12:33 AM 5.0 °F - 1.4 °F 85% 30.00 in 10.0 mi Calm Calm - N/A   Clear
12:53 AM 5.0 °F - 1.4 °F 85% 30.00 in 10.0 mi Calm Calm - N/A   Clear
1:13 AM 6.8 °F - 1.4 °F 79% 30.00 in 10.0 mi Calm Calm - N/A   Clear
1:34 AM 6.8 °F - 1.4 °F 79% 30.00 in 10.0 mi Calm Calm - N/A   Clear
1:54 AM 6.8 °F - 1.4 °F 79% 30.00 in 10.0 mi Calm Calm - N/A   Clear
2:14 AM 1.4 °F - -2.2 °F 85% 30.00 in 10.0 mi Calm Calm - N/A   Clear
2:34 AM 3.2 °F - -0.4 °F 85% 30.01 in 10.0 mi Calm Calm - N/A   Clear
2:54 AM 1.4 °F - -2.2 °F 85% 30.01 in 10.0 mi Calm Calm - N/A   Clear
3:14 AM 1.4 °F - -2.2 °F 85% 30.01 in 10.0 mi Calm Calm - N/A   Clear
3:34 AM 3.2 °F - -0.4 °F 85% 30.01 in 10.0 mi Calm Calm - N/A   Clear
3:54 AM 1.4 °F - -4.0 °F 78% 30.01 in 10.0 mi Calm Calm - N/A   Clear
4:14 AM 3.2 °F -9.1 °F -2.2 °F 78% 30.02 in 10.0 mi WNW 6.9 mph - N/A   Clear
4:35 AM 3.2 °F -7.8 °F -2.2 °F 78% 30.02 in 10.0 mi WNW 5.8 mph - N/A   Clear
4:55 AM 3.2 °F -6.2 °F -2.2 °F 78% 30.03 in 10.0 mi WNW 4.6 mph - N/A   Clear
5:15 AM 1.4 °F -9.9 °F -2.2 °F 85% 30.03 in 10.0 mi WNW 5.8 mph - N/A   Clear
5:35 AM 1.4 °F -8.3 °F -2.2 °F 85% 30.03 in 10.0 mi WNW 4.6 mph - N/A   Clear
5:55 AM 1.4 °F -9.9 °F -2.2 °F 85% 30.04 in 10.0 mi WNW 5.8 mph - N/A   Clear
6:16 AM 1.4 °F - -2.2 °F 85% 30.05 in 10.0 mi Calm Calm - N/A   Clear
6:36 AM 1.4 °F -8.3 °F -2.2 °F 85% 30.06 in 10.0 mi WNW 4.6 mph - N/A   Clear
6:56 AM 1.4 °F - -4.0 °F 78% 30.06 in 10.0 mi Calm Calm - N/A   Clear
7:16 AM 1.4 °F - -2.2 °F 85% 30.06 in 10.0 mi Calm Calm - N/A   Clear
7:36 AM 1.4 °F - -4.0 °F 78% 30.07 in 10.0 mi Calm Calm - N/A   Clear
7:56 AM -0.4 °F - -5.8 °F 78% 30.09 in 10.0 mi Calm Calm - N/A   Clear
8:16 AM 1.4 °F - -4.0 °F 78% 30.10 in 10.0 mi Calm Calm - N/A   Clear
8:36 AM 1.4 °F - -4.0 °F 78% 30.11 in 10.0 mi Calm Calm - N/A   Clear
8:56 AM 3.2 °F - -2.2 °F 78% 30.13 in 10.0 mi Calm Calm - N/A   Clear
9:16 AM 5.0 °F - -2.2 °F 72% 30.13 in 10.0 mi Calm Calm - N/A   Clear
9:36 AM 6.8 °F - -2.2 °F 67% 30.14 in 10.0 mi Calm Calm - N/A   Clear
9:52 AM 6.8 °F - -2.2 °F 67% 30.14 in 10.0 mi Calm Calm - N/A   Clear
10:12 AM 8.6 °F - -2.2 °F 62% 30.14 in 10.0 mi Calm Calm - N/A   Clear
10:32 AM 10.4 °F - -0.4 °F 62% 30.15 in 10.0 mi Calm Calm - N/A   Clear
10:52 AM 10.4 °F - -0.4 °F 62% 30.16 in 10.0 mi Calm Calm - N/A   Clear
11:12 AM 10.4 °F - -0.4 °F 62% 30.15 in 10.0 mi Calm Calm - N/A   Clear
11:32 AM 12.2 °F - -0.4 °F 57% 30.15 in 10.0 mi Calm Calm - N/A   Clear
11:52 AM 12.2 °F - -0.4 °F 57% 30.14 in 10.0 mi Calm Calm - N/A   Clear
12:12 PM 14.0 °F - -0.4 °F 53% 30.14 in 10.0 mi Calm Calm - N/A   Clear
12:32 PM 15.8 °F 6.1 °F -0.4 °F 49% 30.14 in 10.0 mi SW 6.9 mph - N/A   Clear
12:53 PM 15.8 °F 3.4 °F -0.4 °F 49% 30.14 in 10.0 mi WSW 10.4 mph - N/A   Clear
1:13 PM 15.8 °F 5.1 °F -0.4 °F 49% 30.14 in 10.0 mi SW 8.1 mph - N/A   Clear
1:33 PM 17.6 °F 5.0 °F -0.4 °F 45% 30.14 in 10.0 mi WSW 11.5 mph - N/A   Clear
1:53 PM 17.6 °F 6.4 °F -0.4 °F 45% 30.13 in 10.0 mi SW 9.2 mph - N/A   Clear
2:13 PM 17.6 °F 6.4 °F -0.4 °F 45% 30.12 in 10.0 mi WSW 9.2 mph - N/A   Clear
2:33 PM 17.6 °F 6.4 °F 1.4 °F 49% 30.11 in 10.0 mi WSW 9.2 mph - N/A   Clear
2:53 PM 17.6 °F 5.0 °F 1.4 °F 49% 30.12 in 10.0 mi WSW 11.5 mph - N/A   Clear
3:13 PM 19.4 °F 7.9 °F 1.4 °F 46% 30.11 in 10.0 mi WSW 10.4 mph - N/A   Clear
3:33 PM 19.4 °F 9.5 °F 3.2 °F 49% 30.09 in 10.0 mi SW 8.1 mph - N/A   Scattered Clouds
3:54 PM 19.4 °F 7.2 °F 3.2 °F 49% 30.10 in 10.0 mi WSW 11.5 mph - N/A   Mostly Cloudy
4:14 PM 21.2 °F 11.7 °F 3.2 °F 46% 30.09 in 10.0 mi SW 8.1 mph - N/A   Mostly Cloudy
4:34 PM 21.2 °F 10.1 °F 1.4 °F 42% 30.08 in 10.0 mi WSW 10.4 mph - N/A   Mostly Cloudy
4:54 PM 21.2 °F 9.5 °F -0.4 °F 39% 30.07 in 10.0 mi WSW 11.5 mph - N/A   Mostly Cloudy
5:14 PM 21.2 °F 9.5 °F -0.4 °F 39% 30.07 in 10.0 mi WSW 11.5 mph - N/A   Mostly Cloudy
5:34 PM 21.2 °F 10.1 °F -2.2 °F 36% 30.06 in 10.0 mi WSW 10.4 mph - N/A   Overcast
5:54 PM 21.2 °F 13.6 °F -0.4 °F 39% 30.05 in 10.0 mi SW 5.8 mph - N/A   Overcast
6:14 PM 21.2 °F 13.6 °F 1.4 °F 42% 30.05 in 10.0 mi SW 5.8 mph - N/A   Scattered Clouds
6:34 PM 21.2 °F 10.1 °F 3.2 °F 46% 30.05 in 10.0 mi SW 10.4 mph - N/A   Mostly Cloudy
6:54 PM 21.2 °F 10.1 °F 3.2 °F 46% 30.05 in 10.0 mi SSW 10.4 mph - N/A   Mostly Cloudy
7:15 PM 21.2 °F 11.7 °F 6.8 °F 54% 30.04 in 10.0 mi SSW 8.1 mph - N/A   Mostly Cloudy
7:35 PM 21.2 °F 12.6 °F 6.8 °F 54% 30.04 in 10.0 mi SSW 6.9 mph - N/A   Overcast
7:55 PM 21.2 °F 10.9 °F 6.8 °F 54% 30.03 in 10.0 mi SSW 9.2 mph - N/A   Overcast
8:15 PM 21.2 °F 11.7 °F 6.8 °F 54% 30.03 in 10.0 mi SSW 8.1 mph - N/A   Overcast
8:35 PM 21.2 °F 12.6 °F 6.8 °F 54% 30.03 in 10.0 mi SSW 6.9 mph - N/A   Overcast
8:55 PM 23.0 °F 13.9 °F 8.6 °F 54% 30.01 in 10.0 mi South 8.1 mph - N/A   Overcast
9:15 PM 23.0 °F 14.7 °F 8.6 °F 54% 30.01 in 10.0 mi South 6.9 mph - N/A   Overcast
9:35 PM 23.0 °F 13.9 °F 8.6 °F 54% 30.01 in 10.0 mi South 8.1 mph - N/A   Overcast
9:55 PM 23.0 °F 13.9 °F 10.4 °F 59% 30.00 in 10.0 mi South 8.1 mph - N/A   Overcast
10:15 PM 23.0 °F - 10.4 °F 59% 29.99 in 10.0 mi Calm Calm - N/A   Overcast
10:36 PM 21.2 °F - 12.2 °F 68% 29.99 in 10.0 mi Calm Calm - N/A   Scattered Clouds
10:56 PM 21.2 °F - 12.2 °F 68% 29.99 in 10.0 mi Calm Calm - N/A   Clear
11:16 PM 21.2 °F - 12.2 °F 68% 29.99 in 10.0 mi Calm Calm - N/A   Clear
11:36 PM 19.4 °F - 12.2 °F 74% 29.98 in 10.0 mi Calm Calm - N/A   Clear
11:56 PM 21.2 °F - 12.2 °F 68% 29.97 in 10.0 mi Calm Calm - N/A   Clear